Location: Unspecified
(0.0000°N, 0.0000°E)
Time: 12:03:12
(UTC+00:00)

Courier 1B Rocket - Pass Details

Date: 14 December 2018
Orbit: 920 x 1202 km, 28.2° (Epoch: 15 July)

Event Time Altitude Azimuth Distance (km) Brightness Sun altitude
Rises 07:12:04 0° 262° (W) 3,552 7.4 17.8°
Reaches altitude 10° 07:14:58 10° 273° (W) 2,622 6.8 18.4°
Maximum altitude 07:20:23 30° 333° (NNW) 1,630 6.0 19.6°
Drops below altitude 10° 07:26:02 10° 32° (NNE) 2,733 7.5 20.9°
Sets 07:29:07 0° 43° (NE) 3,727 8.3 21.6°
